Погода в Красноармейском

Россия / Саратовская область     51°44′56″N   42°48′24″E
темп.,
°C
ветер,
м/с
пор.,
м/с
влажн.,
%
обл.,
%
осадки,
мм/ч
давл.,
гПа
погр.,
м
29 июня, ср
ср2901:00+13св410740 0.0 1019189
04:00+11св36740 0.0 101996
07:00+13св35740 0.0 1020158
10:00+18св46590 0.0 1020988
13:00+20св45451 0.0 10201898
16:00+21ссв44434 0.0 10192052
19:00+20св455560 0.0 1018852
22:00+14св34706 0.0 101954
30 июня, чт
чт3001:00+12всв33800 0.0 101941
04:00+10св11830 0.0 101910
07:00+13ссв22730 0.0 1018113
10:00+18сз23575 0.0 1018906
13:00+21ссз454620 0.0 10162056
16:00+23ссз464114 0.0 10152403
19:00+21ссз3554100 0.0 1014552
22:00+18ссз345994 0.0 101481
1 июля, пт
пт101:00+16зсз496027 0.0 1013206
04:00+14сз377475 0.0 1012153
07:00+14с6117210 0.0 1012468
10:00+16ссв79545 0.0 10141223
13:00+17с89425 0.0 10151775
16:00+17ссв101149100 0.0 10152191
19:00+14с8136792 0.1 10161433
22:00+11с6127852 0.1 1017556
2 июля, сб
сб201:00+11ссз716781 0.0 1016611
04:00+12с816750 0.0 1015581
07:00+13с715740 0.0 1016626
10:00+17с913570 0.0 10161261
13:00+20с9124727 0.0 10162070
16:00+22ссв810448 0.0 10162302
19:00+21с610530 0.0 10151457
22:00+15ссз337067 0.0 101638
3 июля, вс
вс301:00+16сз356872 0.0 1015136
04:00+13сз34884 0.1 101455
07:00+16ссз238212 0.0 1014122
10:00+22с34590 0.0 1015758
13:00+25с464314 0.0 10142278
16:00+25ссв3551100 0.0 1014628
19:00+25сз2451100 0.0 1014973
22:00+20зюз226319 0.0 101413